CAPE
1 2 6 5 3 11 6 7 10 18 3 0 3 3 1 0 0 0 0 0 0 0 0 0 0 0 0 0 0 0 0 0 0 0 0 0 0 0 0 0 0 0 0 0 0
2 2 5 7 2 2 3 2 3 6 7 3 1 0 0 0 0 0 0 0 0 0 0 0 0 0 0 0 0 0 0 0 0 0 0 0 0 0 0 0 0 0 0 0 0
3 2 1 6 1 4 7 5 5 5 1 4 0 0 0 0 0 0 0 0 0 0 0 0 0 0 0 0 0 0 0 0 0 0 0 0 0 0 0 0 0 0 0 0 0
3 9 6 4 4 5 6 5 1 3 5 0 0 0 0 0 0 0 0 0 0 0 0 0 0 0 0 0 0 0 0 0 0 0 0 0 0 0 0 0 0 0 0 0 0
6 3 2 2 1 1 1 4 6 5 5 0 0 0 0 0 0 0 0 0 0 0 0 0 0 0 0 0 0 0 0 0 0 0 0 0 0 0 0 0 0 0 0 0 0
3 2 3 5 2 1 1 1 5 4 0 0 0 0 0 0 0 0 0 0 0 0 0 0 0 0 0 0 0 0 0 0 0 0 0 0 0 0 0 0 0 0 0 0 0
5 3 2 3 2 1 0 1 0 0 0 0 0 0 0 0 0 0 0 0 0 0 0 0 0 0 0 0 0 0 0 0 0 0 0 3 0 0 0 0 0 0 0 0 0
5 1 1 2 1 1 0 0 0 0 0 0 0 0 0 0 0 0 0 0 0 0 0 0 0 0 0 0 0 0 0 0 0 0 0 2 0 0 0 0 0 0 0 0 0
3 1 0 1 0 0 0 0 0 0 0 0 0 0 0 0 0 0 0 0 0 0 0 0 0 0 0 0 0 0 0 0 0 0 0 0 0 0 0 0 0 0 0 0 0
1 0 0 0 1 1 0 0 0 0 0 0 0 0 0 0 0 0 0 0 0 0 0 0 0 0 0 0 0 0 0 0 0 0 0 0 0 0 0 0 0 0 0 0 0
0 0 0 0 1 0 0 0 0 0 0 0 0 0 0 0 0 0 0 0 0 0 0 0 0 0 0 0 0 0 0 0 0 0 1 0 0 0 0 0 0 0 0 0 0
0 0 0 0 0 0 0 0 1 0 0 0 0 0 0 0 0 0 0 0 0 0 0 0 0 0 0 0 0 0 0 0 0 0 0 0 0 0 0 0 0 0 0 0 0
0 0 0 0 0 0 0 0 0 0 0 0 0 0 0 0 0 0 0 0 0 0 0 0 0 0 0 0 0 0 0 0 1 0 0 0 0 0 0 0 0 0 0 0 0
0 0 0 0 0 0 0 0 0 0 0 0 0 0 0 0 0 0 0 0 0 0 0 0 0 0 0 0 0 0 0 0 0 0 0 0 0 0 0 0 0 0 0 0 0
0 0 0 0 0 0 0 0 0 0 0 0 0 0 0 0 0 0 0 0 0 0 0 0 0 0 0 1 0 0 0 0 0 0 0 0 0 0 0 0 0 0 0 0 0
0 0 0 0 0 0 0 0 0 0 0 0 0 0 0 0 0 0 0 0 0 0 0 0 0 0 0 0 0 0 0 0 0 0 0 0 0 0 0 1 0 0 0 0 0
0 0 0 0 0 0 0 0 0 0 0 0 0 0 0 0 0 0 0 0 0 0 0 0 0 0 0 0 0 0 0 0 0 0 0 0 0 0 0 0 0 0 0 0 0
0 0 0 0 0 0 0 0 0 0 0 0 0 0 0 0 0 0 0 0 0 0 0 0 0 0 0 0 0 0 0 0 1 0 0 0 0 0 0 0 0 0 0 0 0
0 0 0 0 0 0 0 0 0 0 0 0 0 0 0 0 0 0 0 0 0 0 0 0 0 0 0 0 0 0 0 0 0 0 0 0 0 0 0 0 0 0 0 0 0
0 0 0 0 0 0 0 0 0 0 0 0 0 0 0 0 0 0 0 0 0 0 0 0 0 0 0 0 0 0 0 0 0 0 0 0 0 0 0 0 0 0 0 0 0
0 0 0 0 0 0 0 0 0 0 0 0 0 0 0 0 0 0 0 0 0 0 0 0 0 0 0 0 0 0 0 0 0 0 0 0 0 0 0 0 0 0 0 0 0
0 0 0 0 0 0 0 0 0 0 0 0 0 0 0 0 0 0 0 0 0 0 0 0 0 0 0 0 0 0 0 0 0 0 0 0 0 0 0 0 0 0 0 0 0
0 0 0 0 0 0 0 0 0 0 0 0 0 0 0 0 0 0 0 0 0 0 0 0 0 0 0 0 0 0 0 0 0 0 0 0 0 0 0 0 0 0 0 0 0
0 0 0 0 0 0 0 0 0 0 0 0 0 0 0 0 0 0 0 0 0 0 0 0 0 0 0 0 0 0 0 0 0 0 0 0 0 0 0 0 0 0 0 0 0
0 0 0 0 0 0 0 0 0 0 0 0 0 0 0 0 0 0 0 0 0 0 0 0 0 0 0 0 0 0 0 0 0 0 0 0 0 0 0 0 0 0 0 0 0
0 0 0 0 0 0 0 0 0 0 0 0 0 0 0 0 0 0 0 0 0 0 0 0 0 0 0 0 0 0 0 0 0 0 0 0 0 0 0 0 0 0 0 0 0
1 0 0 0 0 0 0 0 0 0 0 0 0 0 0 0 0 0 0 0 0 0 0 0 0 0 0 0 0 0 0 0 0 0 0 0 0 0 0 0 0 0 0 0 0
CIN
0 -1 0 0 0 0 0 -1 0 0 -1 0 -1 0 0 0 0 0 0 0 0 0 0 0 0 0 0 0 0 0 0 0 0 0 0 0 0 0 0 0 0 0 0 0 0
-1 -2 -1 -1 -1 0 -1 -1 -1 0 -1 0 0 0 0 0 0 0 0 0 0 0 0 0 0 0 0 0 0 0 0 0 0 0 0 0 0 0 0 0 0 0 0 0 0
-1 -1 0 0 -1 0 0 0 -1 -1 0 0 0 0 0 0 0 0 0 0 0 0 0 0 0 0 0 0 0 0 0 0 0 0 0 0 0 0 0 0 0 0 0 0 0
-1 0 0 0 0 0 0 0 0 -1 0 0 0 0 0 0 0 0 0 0 0 0 0 0 0 0 0 0 0 0 0 0 0 0 0 0 0 0 0 0 0 0 0 0 0
0 0 0 0 0 0 0 0 0 0 0 0 0 0 0 0 0 0 0 0 0 0 0 0 0 0 0 0 0 0 0 0 0 0 0 0 0 0 0 0 0 0 0 0 0
0 0 0 0 0 0 0 0 0 0 0 0 0 0 0 0 0 0 0 0 0 0 0 0 0 0 0 0 0 0 0 0 0 0 0 0 0 0 0 0 0 0 0 0 0
0 0 0 0 0 0 0 0 0 0 0 0 0 0 0 0 0 0 0 0 0 0 0 0 0 0 0 0 0 0 0 0 0 0 0 0 0 0 0 0 0 0 0 0 0
0 0 0 0 0 0 0 0 0 0 0 0 0 0 0 0 0 0 0 0 0 0 0 0 0 0 0 0 0 0 0 0 0 0 0 -4 0 0 0 0 0 0 0 0 0
0 0 0 0 0 0 0 0 0 0 0 0 0 0 0 0 0 0 0 0 0 0 0 0 0 0 0 0 0 0 0 0 0 0 0 0 0 0 0 0 0 0 0 0 0
0 0 0 0 0 0 0 0 0 0 0 0 0 0 0 0 0 0 0 0 0 0 0 0 0 0 0 0 0 0 0 0 0 0 0 0 0 0 0 0 0 0 0 0 0
0 0 0 0 0 0 0 0 0 0 0 0 0 0 0 0 0 0 0 0 0 0 0 0 0 0 0 0 0 0 0 0 0 0 -19 0 0 0 0 0 0 0 0 0 0
0 0 0 0 0 0 0 0 0 0 0 0 0 0 0 0 0 0 0 0 0 0 0 0 0 0 0 0 0 0 0 0 0 0 0 0 0 0 0 0 0 0 0 0 0
0 0 0 0 0 0 0 0 0 0 0 0 0 0 0 0 0 0 0 0 0 0 0 0 0 0 0 0 0 0 0 0 -2 0 0 0 0 0 0 0 0 0 0 0 0
0 0 0 0 0 0 0 0 0 0 0 0 0 0 0 0 0 0 0 0 0 0 0 0 0 0 0 0 0 0 0 0 0 0 0 0 0 0 0 0 0 0 0 0 0
0 0 0 0 0 0 0 0 0 0 0 0 0 0 0 0 0 0 0 0 0 0 0 0 0 0 0 -3 0 0 0 0 0 0 0 0 0 0 0 0 0 0 0 0 0
0 0 0 0 0 0 0 0 0 0 0 0 0 0 0 0 0 0 0 0 0 0 0 0 0 0 0 0 0 0 0 0 0 0 0 0 0 0 -15 -14 0 0 0 0 0
0 0 0 0 0 0 0 0 0 0 0 0 0 0 0 0 0 0 0 0 0 0 0 0 0 0 0 0 0 0 0 0 0 0 0 0 0 0 0 0 0 0 0 0 0
0 0 0 0 0 0 0 0 0 0 0 0 0 0 0 0 0 0 0 0 0 0 0 0 0 0 0 0 0 0 0 -9 -1 0 0 0 0 0 0 0 0 0 0 0 0
0 0 0 0 0 0 0 0 0 0 0 0 0 0 0 0 0 0 0 0 0 0 0 0 0 0 0 0 0 0 0 0 0 0 0 0 0 0 0 0 0 0 0 0 0
0 0 0 0 0 0 0 0 0 0 0 0 0 0 0 0 0 0 0 0 0 0 0 0 0 0 0 0 0 0 0 0 0 0 0 0 0 0 0 0 0 0 0 0 0
0 0 0 0 0 0 0 0 0 0 0 0 0 0 0 0 0 0 0 0 0 0 0 0 0 0 0 0 0 0 0 0 0 0 0 0 0 0 0 0 0 0 0 0 0
0 0 0 0 0 0 0 0 0 0 0 0 0 0 0 0 0 0 0 0 0 0 0 0 -3 0 0 0 0 0 0 0 0 0 0 0 0 0 0 0 0 0 0 0 0
0 0 0 0 0 0 0 0 0 0 0 0 0 0 0 0 0 0 0 0 0 0 0 0 0 0 0 0 0 0 0 0 0 0 0 0 0 0 0 0 0 0 0 0 0
0 0 0 0 0 0 0 0 0 0 0 0 0 0 0 0 0 0 0 0 0 0 -1 0 0 0 0 0 0 0 0 0 0 0 0 0 0 0 0 0 0 0 0 0 0
0 0 0 0 0 0 0 0 0 0 0 0 0 0 0 0 0 0 0 0 0 0 0 0 0 0 0 0 0 0 0 0 0 0 0 0 0 0 0 0 0 0 0 0 0
0 0 0 0 0 0 0 0 0 0 0 0 0 0 0 0 0 0 0 0 0 0 0 0 0 0 0 0 0 0 0 0 0 0 0 0 0 0 0 0 0 0 0 0 0
0 0 0 0 0 0 0 0 0 0 0 0 0 0 0 0 0 0 0 0 0 0 0 0 0 0 0 0 0 0 0 0 0 0 0 0 0 0 0 0 0 0 0 0 0
Wind_Speed
7 7 7 8 11 15 19 20 21 22 25 24 23 23 24 25 25 23 21 19 19 22 23 23 25 27 24 24 23 23 33 39 41 45 46 40 46 39 40 46 41 34 36 33 35
10 15 18 20 22 23 23 25 27 25 26 22 21 22 24 24 25 24 18 20 21 23 24 26 28 29 28 26 25 28 35 39 36 41 50 47 48 48 48 51 49 47 41 40 43
38 39 39 14 11 12 16 19 22 25 27 27 26 24 23 23 23 20 18 21 22 23 24 25 27 29 30 27 28 28 39 39 42 44 47 53 52 48 49 56 52 56 53 49 49
36 34 14 17 30 40 42 39 37 35 31 28 25 23 22 21 26 20 18 20 21 23 27 28 31 32 34 33 28 40 37 40 43 42 47 51 51 51 50 57 51 52 53 54 54
11 16 16 16 19 22 27 18 39 38 34 28 24 23 22 23 22 17 19 19 21 25 29 32 33 34 35 34 38 41 41 37 42 46 48 52 52 55 55 52 53 52 52 52 52
36 35 27 23 24 21 18 24 32 33 30 25 23 25 23 24 19 17 18 20 23 26 29 31 32 32 35 36 40 39 44 44 42 42 42 46 50 48 52 50 49 48 48 47 45
41 39 34 28 28 27 18 38 36 31 25 23 24 23 23 21 18 16 19 21 23 25 29 28 27 32 35 42 36 43 56 47 34 39 43 47 53 50 52 52 51 50 49 47 42
40 42 39 42 42 45 46 34 42 32 24 25 25 21 23 19 17 19 21 23 24 24 25 25 25 31 34 35 42 47 45 53 41 46 40 48 59 55 51 50 50 48 49 47 46
40 43 47 47 48 48 46 35 33 26 28 25 23 24 23 18 19 23 24 26 28 27 27 26 29 35 35 47 51 43 56 60 53 51 49 46 56 54 49 46 45 42 43 43 45
41 44 46 48 49 47 45 39 31 25 31 24 23 24 21 22 24 27 25 26 30 34 34 32 33 41 40 45 57 57 59 53 55 52 50 50 53 52 49 44 41 40 39 37 40
41 43 46 46 45 40 42 32 37 29 35 29 26 21 21 25 23 26 27 30 33 34 44 38 44 48 42 40 42 45 48 50 47 47 46 49 52 50 43 38 33 31 31 31 21
39 42 45 46 41 37 35 37 34 28 38 26 23 18 21 25 32 31 29 40 37 43 41 42 46 37 39 37 42 43 44 46 45 43 45 48 48 42 34 30 28 28 18 16 15
39 43 47 48 33 35 36 36 30 28 34 28 20 21 24 29 35 35 35 35 38 42 44 46 40 36 38 45 45 40 43 43 46 48 41 38 38 32 35 32 30 23 17 17 20
38 43 47 46 30 34 32 33 31 28 36 27 23 23 26 32 34 38 31 35 38 45 47 38 33 40 42 43 40 46 37 40 45 48 47 32 37 27 33 28 25 22 22 23 26
38 42 47 36 32 32 31 32 27 27 48 24 26 23 30 38 40 34 31 34 43 48 36 39 42 41 42 38 39 38 40 39 44 38 35 33 27 24 28 23 25 25 28 31 33
38 41 43 33 31 27 32 31 28 38 38 32 27 35 44 44 35 35 35 37 39 37 34 34 33 29 32 34 36 39 42 42 33 30 34 26 30 19 20 22 24 26 35 36 39
39 41 39 31 33 30 33 31 42 39 32 36 40 44 52 42 38 39 44 47 44 49 48 44 32 33 33 48 38 43 39 40 37 36 31 25 23 14 20 23 26 35 39 39 40
40 43 35 29 30 33 32 36 43 35 37 36 43 49 40 41 38 43 42 46 37 37 46 49 51 37 40 37 38 43 29 33 39 37 34 22 16 16 19 23 29 37 40 38 40
36 36 32 28 31 31 35 42 39 38 36 44 45 41 38 35 41 41 43 37 32 36 46 47 41 40 34 34 37 32 30 25 27 27 28 17 14 16 12 22 35 37 38 38 36
35 36 29 29 31 31 34 38 34 31 35 35 40 36 42 42 43 43 40 30 31 32 35 36 48 34 32 38 25 31 24 28 26 31 28 19 14 11 27 32 37 36 37 32 36
34 39 26 31 29 31 38 35 32 30 32 34 35 37 36 40 37 41 35 31 28 33 36 33 29 36 37 35 36 31 24 19 21 20 22 22 13 14 14 34 33 37 37 38 41
33 40 27 28 35 30 36 32 30 32 29 29 30 31 34 36 39 35 34 29 29 35 40 29 31 37 37 31 23 21 20 20 25 21 16 13 9 18 29 31 34 36 34 36 39
32 33 25 24 35 33 33 33 30 32 32 31 32 29 29 34 39 32 33 27 27 30 36 28 29 40 39 30 26 26 18 17 20 14 14 14 11 25 32 33 35 31 31 32 34
28 36 29 25 27 32 35 35 34 30 30 27 30 27 29 32 27 34 33 30 27 32 28 24 26 27 32 29 26 25 17 16 14 15 15 9 8 24 29 32 35 31 28 30 33
24 31 28 35 31 29 30 32 34 36 27 26 31 27 29 37 37 32 31 31 31 27 22 23 28 25 24 21 20 18 15 12 11 8 12 10 6 24 30 32 33 28 29 31 32
28 29 26 32 29 28 28 31 31 31 29 32 30 31 26 32 32 37 35 33 29 24 22 21 26 27 30 22 22 20 14 12 11 10 9 10 5 29 31 33 33 31 32 31 28
20 21 25 29 28 28 29 28 28 27 27 23 29 30 31 29 25 25 26 25 23 23 22 21 23 28 30 25 27 21 15 16 14 11 13 15 23 31 33 34 33 31 30 29 27
Wind_Direction
2 28 31 36 44 42 37 31 26 22 16 13 11 9 5 3 2 6 7 14 12 4 3 359 357 350 350 345 341 336 321 316 315 315 312 315 311 311 308 300 301 299 295 295 295
47 53 49 44 38 32 27 21 16 14 10 11 8 6 3 2 3 5 23 16 9 5 359 355 348 347 342 339 337 327 319 317 319 316 311 310 308 307 304 300 296 296 293 294 294
14 14 12 348 4 11 22 20 16 11 6 2 2 3 5 5 2 6 15 9 7 7 0 355 350 344 338 338 333 328 317 318 317 316 313 309 306 306 303 298 298 294 294 293 291
9 21 336 330 328 337 354 1 0 358 1 3 6 7 6 7 355 0 9 9 10 5 356 351 345 341 334 331 332 321 319 318 319 319 315 309 309 305 302 299 301 298 295 292 288
11 334 334 335 326 321 317 327 359 355 356 1 8 9 6 359 356 10 7 8 4 357 352 346 343 340 333 330 326 320 322 324 321 318 314 311 308 306 304 305 303 300 297 292 288
339 333 323 321 320 322 327 11 8 4 2 7 8 3 1 355 9 14 11 2 357 353 349 348 342 341 331 328 326 327 324 323 323 320 319 314 313 313 309 311 307 303 301 300 292
349 335 325 320 319 318 333 4 3 5 9 11 5 4 4 4 10 18 8 358 355 351 345 348 347 341 336 328 330 326 321 324 329 329 322 320 310 312 313 311 305 303 300 299 298
10 7 328 330 327 330 336 6 354 3 14 8 7 12 5 11 25 11 2 357 354 352 346 345 346 339 334 333 330 327 327 325 331 327 326 322 311 317 317 313 308 304 300 293 290
10 6 348 341 338 335 346 4 6 14 11 8 11 7 4 15 8 1 359 352 350 351 348 345 343 337 337 331 328 330 324 324 327 328 326 323 317 320 320 316 311 308 303 296 292
7 3 358 343 345 345 350 359 8 11 4 8 4 360 4 357 354 352 356 353 348 344 343 343 340 334 335 334 326 326 326 326 326 330 328 326 322 324 323 319 314 309 303 300 297
5 2 359 356 357 3 2 11 6 4 1 360 355 1 2 357 2 357 356 350 345 344 338 340 335 330 333 333 330 328 327 326 330 333 331 329 328 327 327 325 321 318 311 307 318
7 4 1 357 0 7 11 9 7 0 353 3 2 7 2 0 349 351 355 343 342 337 340 338 332 338 337 338 332 332 330 329 332 335 334 332 331 336 343 343 337 327 334 339 331
5 1 357 354 4 7 9 7 7 6 353 359 10 4 1 356 346 347 347 345 341 339 339 335 332 338 339 336 334 333 332 334 334 335 335 335 338 353 360 357 3 7 8 346 327
3 359 356 354 6 2 4 4 4 5 350 360 4 2 357 352 347 345 351 346 342 338 338 339 345 341 338 337 338 334 339 337 337 338 338 348 340 349 349 350 353 356 351 333 322
360 358 353 2 358 1 1 359 4 4 342 2 357 2 353 349 338 348 355 348 339 335 339 338 338 339 339 342 344 339 340 339 338 337 343 350 351 353 352 8 348 330 327 323 321
356 356 355 2 1 3 357 358 1 349 342 346 353 346 341 342 347 346 348 349 343 344 346 344 341 346 349 350 348 340 338 338 346 350 346 356 355 1 5 2 355 347 323 319 317
349 350 355 359 356 356 355 357 346 343 349 344 340 340 337 341 344 347 345 347 348 343 343 347 353 352 354 343 348 349 343 342 347 350 348 351 355 8 356 347 346 329 312 312 313
344 344 353 358 356 353 354 350 339 342 340 342 340 337 342 347 347 345 347 346 356 354 345 344 342 353 348 347 346 345 351 348 344 347 344 354 5 9 357 350 346 310 311 306 315
346 348 350 354 355 355 350 342 341 343 344 340 341 344 346 349 347 348 348 349 354 359 349 345 343 341 347 352 351 355 354 352 349 353 353 7 9 356 35 293 312 310 311 310 307
345 346 350 354 354 354 349 343 343 348 347 348 344 348 344 346 347 349 350 354 354 359 357 348 339 352 355 350 2 353 353 354 358 354 355 4 5 22 288 306 309 311 311 304 310
344 342 351 352 355 354 346 346 346 351 351 350 346 343 345 345 347 346 349 351 354 353 355 350 349 347 350 355 351 356 2 4 1 6 2 2 23 19 343 306 303 309 310 313 319
342 337 349 353 347 351 347 351 351 349 353 350 348 343 343 346 345 349 348 351 357 353 350 355 350 347 349 355 10 15 12 16 7 3 3 5 345 15 336 300 304 305 305 311 318
338 339 353 356 342 343 346 345 348 348 348 349 347 346 350 348 348 348 348 355 355 355 351 355 354 348 355 8 13 10 13 18 6 17 3 1 354 330 295 303 310 303 302 307 310
343 338 344 347 345 340 340 341 343 348 345 349 345 348 347 344 343 344 344 353 353 347 349 1 352 348 346 347 356 353 354 359 11 2 0 355 325 277 292 303 309 306 302 306 311
339 333 338 333 333 334 339 338 338 342 348 350 348 343 344 344 344 342 344 345 344 350 3 359 349 348 342 339 347 345 345 354 2 354 359 351 296 275 291 300 304 298 302 309 313
329 332 338 332 333 331 332 335 335 339 343 343 339 342 340 337 338 336 341 344 347 355 357 357 351 355 349 4 6 359 2 1 4 7 2 357 324 295 295 302 308 307 309 310 309
326 329 327 329 331 330 328 328 333 337 336 335 340 338 334 330 334 332 336 335 330 333 346 351 357 357 354 358 355 1 13 9 5 6 0 0 336 293 300 307 307 306 305 305 305